�N����,����,�~����,�C��,���x,�C��,����,���ϕ���,�ő�u�ԕ���,�ő厞����,���˗�,�I�_���x,�n�����x,�ő啗���N��,DTYPE
"19/03/21","00:10",0.0,12.1,80.8,1009.5,301.2,1.8,2.4,321.5,0.00,8.9,11.8,"00:01:18",1
"19/03/21","00:20",0.0,12.1,80.9,1009.3,309.6,1.6,2.4,325.2,0.00,9.0,11.9,"00:17:20",1
"19/03/21","00:30",0.0,12.2,81.2,1009.0,286.7,1.2,2.0,317.1,0.00,9.1,11.7,"00:20:08",1
"19/03/21","00:40",0.0,12.2,81.0,1009.3,289.6,1.5,2.8,301.4,0.00,9.1,11.8,"00:37:48",1
"19/03/21","00:50",0.0,12.3,80.9,1009.3,287.3,1.6,2.4,288.7,0.00,9.2,11.8,"00:41:04",1
"19/03/21","01:00",0.0,12.3,80.3,1009.3,321.2,1.6,2.5,322.8,0.00,9.0,11.7,"00:57:22",1
"19/03/21","01:10",0.0,12.1,81.2,1009.7,291.2,1.5,1.9,269.9,0.00,9.0,11.6,"01:06:56",1
"19/03/21","01:20",0.0,12.3,81.0,1009.7,292.1,1.2,2.1,265.5,0.00,9.2,11.6,"01:11:44",1
"19/03/21","01:30",0.0,12.2,80.3,1010.4,302.8,1.6,2.5,327.2,0.00,9.0,11.6,"01:23:12",1
"19/03/21","01:40",0.0,12.2,79.9,1010.7,313.3,1.7,2.4,323.1,0.00,8.9,11.7,"01:37:44",1
"19/03/21","01:50",0.0,12.3,78.7,1010.2,335.7,1.6,2.5,308.2,0.00,8.8,11.5,"01:49:46",1
"19/03/21","02:00",0.0,12.2,77.7,1010.0,330.1,1.6,2.5,334.0,0.00,8.5,11.4,"01:50:40",1
"19/03/21","02:10",0.0,12.4,75.9,1010.2,289.8,1.7,3.2,310.5,0.00,8.3,11.3,"02:02:00",1
"19/03/21","02:20",0.0,12.4,75.0,1010.2,275.0,1.1,1.8,242.2,0.00,8.1,11.3,"02:19:04",1
"19/03/21","02:30",0.0,12.4,74.8,1010.0,302.8,0.8,1.8,290.5,0.00,8.1,11.3,"02:22:40",1
"19/03/21","02:40",0.0,12.1,75.9,1008.8,259.0,0.6,1.1,103.5,0.00,8.0,11.3,"02:31:38",1
"19/03/21","02:50",0.2,12.2,76.6,1008.8,329.3,1.2,2.2,325.8,0.00,8.3,11.5,"02:49:12",1
"19/03/21","03:00",0.4,11.6,80.2,1008.3,295.8,1.5,1.9,309.8,0.00,8.3,11.5,"02:58:16",1
"19/03/21","03:10",0.0,11.1,83.5,1007.8,279.7,0.6,1.3,294.7,0.00,8.5,11.4,"03:00:32",1
"19/03/21","03:20",0.2,10.9,85.5,1007.1,317.4,1.1,2.0,334.7,0.00,8.6,11.3,"03:14:34",1
"19/03/21","03:30",0.0,10.7,87.3,1006.9,301.2,1.2,2.4,313.9,0.00,8.7,11.3,"03:29:36",1
"19/03/21","03:40",0.0,10.5,88.5,1007.6,304.9,1.6,2.8,333.6,0.00,8.7,11.4,"03:39:44",1
"19/03/21","03:50",0.0,10.4,89.7,1007.4,303.5,1.2,2.5,332.8,0.00,8.8,11.4,"03:40:08",1
"19/03/21","04:00",0.0,10.3,90.3,1007.1,294.4,0.7,2.0,325.8,0.00,8.8,11.5,"03:50:02",1
"19/03/21","04:10",0.2,10.3,90.9,1007.1,328.3,1.3,2.1,328.9,0.00,8.9,11.4,"04:02:08",1
"19/03/21","04:20",0.0,10.2,91.4,1006.7,282.8,1.1,1.9,325.9,0.00,8.9,11.4,"04:10:56",1
"19/03/21","04:30",0.0,10.2,91.9,1006.0,291.7,1.0,1.4,302.9,0.00,9.0,11.4,"04:26:48",1
"19/03/21","04:40",0.0,10.1,92.4,1006.4,277.1,1.3,2.2,304.1,0.00,9.0,11.4,"04:36:08",1
"19/03/21","04:50",0.0,10.2,92.7,1006.0,298.0,1.3,2.6,315.0,0.00,9.1,11.4,"04:40:32",1
"19/03/21","05:00",0.0,10.2,92.9,1006.0,299.7,1.3,2.6,327.8,0.00,9.1,11.4,"04:55:52",1
"19/03/21","05:10",0.0,10.2,93.4,1005.7,320.7,1.1,1.8,337.8,0.00,9.2,11.2,"05:05:04",1
"19/03/21","05:20",0.0,10.2,93.5,1005.5,309.6,1.0,2.0,321.2,0.00,9.2,11.2,"05:19:44",1
"19/03/21","05:30",0.0,10.2,93.6,1005.7,282.9,1.1,1.9,310.1,0.00,9.3,11.2,"05:20:24",1
"19/03/21","05:40",0.0,10.2,94.0,1005.5,290.3,0.8,1.3,306.8,0.00,9.3,11.2,"05:37:04",1
"19/03/21","05:50",0.0,10.3,94.1,1005.7,302.0,1.3,2.1,322.8,0.00,9.4,11.1,"05:47:04",1
"19/03/21","06:00",0.0,10.4,94.1,1005.5,295.1,1.2,1.8,333.3,0.00,9.5,11.2,"05:50:08",1
"19/03/21","06:10",0.0,10.4,94.1,1005.0,298.0,1.0,1.6,314.3,0.00,9.5,11.1,"06:01:04",1
"19/03/21","06:20",0.0,10.4,94.2,1005.0,294.9,1.1,1.4,302.6,0.00,9.5,11.3,"06:18:32",1
"19/03/21","06:30",0.0,10.5,94.4,1005.2,310.1,1.5,2.4,338.1,0.00,9.7,11.2,"06:29:20",1
"19/03/21","06:40",0.0,10.6,94.4,1005.0,325.4,1.5,2.1,321.7,0.00,9.8,11.0,"06:30:16",1
"19/03/21","06:50",0.0,10.6,94.6,1005.2,312.7,1.1,1.8,315.9,0.00,9.8,11.1,"06:48:48",1
"19/03/21","07:00",0.2,10.7,94.7,1005.0,274.8,0.8,1.2,299.7,0.00,9.9,11.3,"06:50:24",1
"19/03/21","07:10",0.0,10.9,94.7,1005.2,299.3,1.5,2.2,324.8,0.00,10.1,11.2,"07:08:16",1
"19/03/21","07:20",0.0,11.0,94.8,1005.2,329.2,1.8,2.9,338.0,0.00,10.2,11.0,"07:11:28",1
"19/03/21","07:30",0.0,11.1,95.0,1005.2,241.3,0.7,1.4,233.8,0.00,10.4,11.4,"07:28:00",1
"19/03/21","07:40",0.0,11.1,94.9,1005.2,323.0,1.3,2.2,323.6,0.00,10.4,11.0,"07:34:16",1
"19/03/21","07:50",0.0,11.3,95.3,1005.0,281.9,0.7,1.2,323.7,0.01,10.6,11.2,"07:40:56",1
"19/03/21","08:00",0.0,11.4,95.0,1005.2,282.3,0.8,1.1,266.9,0.00,10.7,11.2,"07:58:24",1
"19/03/21","08:10",0.0,11.5,95.0,1005.5,309.4,1.1,1.9,332.6,0.00,10.8,11.2,"08:09:28",1
"19/03/21","08:20",0.0,11.6,95.1,1005.2,325.8,0.7,1.4,334.7,0.00,10.9,11.2,"08:11:12",1
"19/03/21","08:30",0.0,11.6,95.1,1005.2,289.4,1.1,1.8,316.2,0.01,10.9,11.2,"08:20:02",1
"19/03/21","08:40",0.0,11.8,95.2,1005.2,316.4,1.0,1.6,319.7,0.01,11.1,11.2,"08:31:36",1
"19/03/21","08:50",0.0,11.9,94.9,1005.2,331.8,1.0,1.4,342.2,0.02,11.1,11.2,"08:40:16",1
"19/03/21","09:00",0.0,12.1,95.2,1005.0,269.1,0.3,1.0,234.2,0.03,11.4,11.3,"08:59:44",1
"19/03/21","09:10",0.0,12.4,95.2,1004.8,236.4,0.5,1.0,235.8,0.06,11.7,11.2,"09:00:08",1
"19/03/21","09:20",0.0,12.5,94.8,1005.2,337.7,0.7,2.4,344.6,0.07,11.7,11.3,"09:16:56",1
"19/03/21","09:30",0.0,12.5,94.2,1005.0,333.1,0.7,1.4,328.2,0.05,11.6,11.2,"09:20:08",1
"19/03/21","09:40",0.0,12.9,95.1,1004.8,147.4,0.7,1.6,164.0,0.13,12.2,11.3,"09:36:24",1
"19/03/21","09:50",0.0,13.1,93.7,1005.0,262.5,0.6,1.8,241.7,0.14,12.1,11.7,"09:49:20",1
"19/03/21","10:00",0.0,13.4,93.0,1005.0,269.5,0.8,1.7,241.6,0.08,12.3,11.7,"09:50:08",1
"19/03/21","10:10",0.0,13.4,92.8,1005.0,296.8,1.0,2.0,328.7,0.07,12.3,11.6,"10:01:04",1
"19/03/21","10:20",0.0,13.5,92.0,1004.8,312.3,1.0,1.4,332.3,0.03,12.3,11.6,"10:14:40",1
"19/03/21","10:30",0.0,13.3,92.1,1004.5,308.3,1.2,2.0,335.7,0.02,12.1,11.6,"10:24:08",1
"19/03/21","10:40",0.0,13.4,92.1,1004.3,325.7,1.0,1.7,342.7,0.03,12.2,11.8,"10:31:46",1
"19/03/21","10:50",0.0,13.7,92.0,1004.1,320.0,1.1,1.7,318.8,0.04,12.5,11.7,"10:41:12",1
"19/03/21","11:00",0.0,13.9,92.0,1003.8,307.6,1.1,2.8,356.4,0.06,12.7,11.8,"10:57:44",1
"19/03/21","11:10",0.0,13.7,91.7,1004.1,284.4,1.5,3.3,250.5,0.05,12.4,11.8,"11:09:04",1
"19/03/21","11:20",0.0,14.2,90.4,1003.6,280.7,1.1,1.7,269.1,0.10,12.7,12.0,"11:15:44",1
"19/03/21","11:30",0.0,14.5,90.0,1003.4,320.8,1.2,2.8,330.1,0.11,12.9,11.9,"11:26:32",1
"19/03/21","11:40",0.0,14.8,88.7,1003.6,317.1,1.2,2.5,334.7,0.15,13.0,12.0,"11:33:20",1
"19/03/21","11:50",0.0,15.2,86.5,1003.6,306.9,1.0,2.0,338.2,0.19,13.0,12.1,"11:44:08",1
"19/03/21","12:00",0.0,15.8,85.8,1003.6,311.8,1.3,2.7,334.3,0.20,13.5,12.2,"11:52:08",1
"19/03/21","12:10",0.0,15.8,85.5,1003.4,265.2,1.1,2.0,257.3,0.15,13.4,12.5,"12:08:56",1
"19/03/21","12:20",0.0,15.9,83.5,1003.1,244.8,1.2,2.4,238.0,0.08,13.2,12.3,"12:12:16",1
"19/03/21","12:30",0.0,15.7,84.1,1002.9,247.3,1.0,1.7,242.1,0.10,13.1,12.4,"12:24:00",1
"19/03/21","12:40",0.0,16.3,84.0,1002.4,254.0,0.8,1.6,235.7,0.09,13.6,12.3,"12:38:00",1
"19/03/21","12:50",0.0,16.4,82.3,1002.4,327.2,1.3,1.9,335.2,0.07,13.4,12.5,"12:42:48",1
"19/03/21","13:00",0.0,16.4,82.3,1002.2,325.0,1.1,1.9,337.6,0.06,13.4,12.7,"12:55:28",1
"19/03/21","13:10",0.2,16.4,81.7,1001.7,305.1,1.1,1.8,339.4,0.05,13.3,12.4,"13:02:08",1
"19/03/21","13:20",0.0,16.5,81.1,1001.9,301.3,1.0,1.6,331.2,0.07,13.3,12.6,"13:15:36",1
"19/03/21","13:30",0.0,16.8,80.4,1001.9,309.2,0.7,1.4,311.4,0.09,13.4,12.6,"13:29:04",1
"19/03/21","13:40",0.0,17.1,79.5,1001.2,302.5,1.1,1.9,335.4,0.13,13.6,12.7,"13:32:48",1
"19/03/21","13:50",0.0,17.3,78.4,1001.0,279.9,0.7,1.9,318.4,0.10,13.5,12.7,"13:49:52",1
"19/03/21","14:00",0.0,17.7,77.1,1000.8,331.2,1.0,2.5,338.1,0.08,13.7,12.9,"13:50:08",1
"19/03/21","14:10",0.0,17.3,77.3,1000.5,193.5,0.3,1.2,113.7,0.09,13.3,12.8,"14:03:36",1
"19/03/21","14:20",0.0,17.7,76.0,1000.5,298.0,1.0,2.2,336.8,0.08,13.5,12.8,"14:19:20",1
"19/03/21","14:30",0.0,17.9,77.2,1000.5,331.6,0.7,2.0,338.0,0.08,13.9,13.1,"14:20:24",1
"19/03/21","14:40",0.0,18.2,76.2,1000.5,292.7,0.7,1.3,308.1,0.17,14.0,13.1,"14:38:48",1
"19/03/21","14:50",0.0,18.4,75.9,1000.0,298.8,1.1,1.9,336.8,0.15,14.1,13.1,"14:41:44",1
"19/03/21","15:00",0.0,18.6,74.6,1000.0,309.5,0.5,1.0,121.5,0.16,14.0,13.2,"14:51:20",1
"19/03/21","15:10",0.0,18.5,73.8,999.8,243.9,0.8,1.4,235.2,0.18,13.8,13.2,"15:04:08",1
"19/03/21","15:20",0.0,18.6,74.4,1000.0,284.0,1.0,1.8,239.0,0.17,14.0,13.4,"15:18:24",1
"19/03/21","15:30",0.0,18.4,75.3,999.8,302.0,1.6,2.7,331.7,0.13,14.0,13.3,"15:23:36",1
"19/03/21","15:40",0.0,18.6,74.8,999.8,313.9,1.6,2.8,308.1,0.12,14.1,13.5,"15:32:32",1
"19/03/21","15:50",0.0,19.0,73.6,1000.0,294.6,1.1,2.0,290.1,0.07,14.2,13.5,"15:41:12",1
"19/03/21","16:00",0.0,18.9,74.7,999.8,299.5,1.6,2.5,305.4,0.05,14.4,13.5,"15:51:44",1
"19/03/21","16:10",0.0,18.7,76.7,999.3,318.2,1.7,2.7,329.8,0.04,14.6,13.7,"16:04:56",1
"19/03/21","16:20",0.0,18.5,77.8,999.3,310.4,1.5,2.1,333.4,0.04,14.6,13.6,"16:17:20",1
"19/03/21","16:30",0.0,18.4,78.6,999.6,296.7,1.5,2.1,307.2,0.02,14.7,13.7,"16:22:32",1
"19/03/21","16:40",0.0,18.2,79.5,999.1,302.1,1.2,1.9,335.7,0.03,14.6,13.6,"16:34:56",1
"19/03/21","16:50",0.0,18.1,80.5,999.1,306.4,1.2,2.4,332.1,0.01,14.7,13.7,"16:44:32",1
"19/03/21","17:00",0.0,17.8,81.3,999.1,278.9,1.3,2.2,280.7,0.00,14.6,13.8,"16:54:40",1
"19/03/21","17:10",0.0,17.7,82.3,999.6,284.4,1.2,1.8,308.6,0.01,14.7,13.7,"17:09:20",1
"19/03/21","17:20",0.0,17.6,83.1,999.3,311.2,1.7,3.4,328.5,0.01,14.7,13.6,"17:17:12",1
"19/03/21","17:30",0.0,17.5,83.4,999.6,312.8,1.6,2.5,331.3,0.01,14.7,13.6,"17:20:56",1
"19/03/21","17:40",0.0,17.4,83.7,999.8,306.9,1.5,2.5,325.4,0.00,14.7,13.7,"17:33:12",1
"19/03/21","17:50",0.0,17.4,84.3,999.8,291.6,1.1,1.8,320.0,0.00,14.8,13.5,"17:46:16",1
"19/03/21","18:00",0.0,17.2,84.6,999.8,295.1,1.2,2.1,313.7,0.00,14.6,13.5,"17:53:12",1
"19/03/21","18:10",0.0,17.1,85.0,999.6,289.9,1.0,2.0,321.1,0.00,14.6,13.7,"18:08:48",1
"19/03/21","18:20",0.0,17.0,85.5,999.6,294.1,1.0,2.1,301.5,0.00,14.6,13.4,"18:15:36",1
"19/03/21","18:30",0.0,16.9,85.7,1000.3,313.2,1.1,2.0,311.7,0.00,14.5,13.5,"18:22:48",1
"19/03/21","18:40",0.0,16.8,86.3,999.8,326.6,0.8,2.0,318.2,0.00,14.5,13.4,"18:35:20",1
"19/03/21","18:50",0.0,16.7,87.0,999.8,298.5,0.8,1.3,313.2,0.00,14.6,13.6,"18:44:08",1
"19/03/21","19:00",0.0,16.6,87.6,1000.0,285.9,0.8,1.8,325.3,0.00,14.6,13.4,"18:53:04",1
"19/03/21","19:10",0.0,16.5,87.9,999.8,292.3,1.2,2.0,308.4,0.00,14.5,13.3,"19:05:36",1
"19/03/21","19:20",0.0,16.5,88.2,999.8,308.3,1.2,1.7,298.5,0.00,14.6,13.3,"19:11:28",1
"19/03/21","19:30",0.0,16.4,88.4,999.6,302.4,1.0,1.3,319.3,0.00,14.5,13.2,"19:20:08",1
"19/03/21","19:40",0.0,16.5,88.6,1000.0,309.8,1.2,1.8,335.4,0.00,14.7,13.5,"19:33:36",1
"19/03/21","19:50",0.0,16.4,88.7,1000.3,324.8,1.0,1.4,318.6,0.00,14.6,13.3,"19:43:04",1
"19/03/21","20:00",0.0,16.3,89.1,1000.3,311.9,1.2,1.9,319.9,0.00,14.5,13.2,"19:52:32",1
"19/03/21","20:10",0.0,16.3,89.4,1000.5,295.2,1.1,1.9,326.4,0.00,14.6,13.3,"20:04:32",1
"19/03/21","20:20",0.0,16.4,89.5,1000.8,304.3,1.0,1.4,271.4,0.00,14.7,13.3,"20:17:28",1
"19/03/21","20:30",0.0,16.4,89.7,1000.5,283.6,1.0,1.7,312.9,0.00,14.7,13.2,"20:29:36",1
"19/03/21","20:40",0.0,16.5,89.7,1000.8,314.2,0.7,2.2,322.9,0.00,14.8,13.3,"20:30:08",1
"19/03/21","20:50",0.0,16.5,89.8,1000.8,311.0,1.0,1.8,334.8,0.00,14.9,13.3,"20:46:40",1
"19/03/21","21:00",0.0,16.4,89.8,1000.5,317.0,1.1,1.7,312.8,0.00,14.8,13.1,"20:54:08",1
"19/03/21","21:10",0.0,16.3,90.2,1000.3,307.4,0.7,1.3,257.5,0.00,14.7,13.2,"21:00:48",1
"19/03/21","21:20",0.0,16.3,90.5,1000.8,331.7,0.6,1.1,335.4,0.00,14.8,13.3,"21:10:32",1
"19/03/21","21:30",0.0,16.1,90.7,1001.0,284.2,0.5,1.2,268.8,0.00,14.6,13.3,"21:22:08",1
"19/03/21","21:40",0.0,16.0,91.1,1000.8,286.7,0.7,1.6,307.7,0.00,14.6,13.1,"21:36:16",1
"19/03/21","21:50",0.0,16.0,91.2,1001.0,338.8,1.0,1.7,325.7,0.00,14.6,13.1,"21:46:56",1
"19/03/21","22:00",0.0,15.8,91.2,1001.0,329.4,1.3,1.8,323.5,0.00,14.4,13.1,"21:54:24",1
"19/03/21","22:10",0.0,15.6,91.7,1000.8,314.2,1.3,1.9,308.6,0.00,14.3,13.0,"22:06:24",1
"19/03/21","22:20",0.0,15.5,92.2,1000.8,303.8,0.8,1.4,312.3,0.00,14.3,13.2,"22:15:52",1
"19/03/21","22:30",0.0,15.5,92.3,1001.0,284.0,0.8,1.4,299.3,0.00,14.3,13.2,"22:28:48",1
"19/03/21","22:40",0.0,15.4,92.3,1001.0,326.9,1.2,1.9,332.5,0.00,14.2,12.9,"22:35:36",1
"19/03/21","22:50",0.0,15.1,92.9,1000.8,322.8,1.0,1.3,329.9,0.00,14.0,13.0,"22:40:40",1
"19/03/21","23:00",0.0,15.0,93.3,1000.5,305.3,1.1,1.4,313.9,0.00,14.0,12.9,"22:56:16",1
"19/03/21","23:10",0.0,15.1,93.7,1000.0,294.8,1.2,1.4,316.3,0.00,14.1,12.6,"23:02:00",1
"19/03/21","23:20",0.0,15.2,93.7,1000.3,303.7,1.5,1.8,328.2,0.00,14.2,12.9,"23:18:16",1
"19/03/21","23:30",0.0,15.1,93.5,1000.3,328.2,1.1,1.7,336.1,0.00,14.1,12.9,"23:27:20",1
"19/03/21","23:40",0.0,14.9,94.0,999.8,337.9,0.6,1.2,324.2,0.00,14.0,12.8,"23:30:16",1
"19/03/21","23:50",0.0,14.8,94.2,999.8,308.3,1.2,1.6,312.4,0.00,13.9,12.7,"23:45:44",1
"19/03/21","24:00",0.0,14.8,94.6,999.8,310.8,1.2,1.7,318.6,0.00,14.0,12.8,"23:50:32",1
